M I D A S
Marine Information and Data Acquisition System
Tripno 1886 of the Zeeleeuw from 2010-05-25 07:47:05 to 2010-05-25 14:29:09
Back to CruiseResearch ActivitiesStationsMapUnderway DataData graphs

EquipmentUnitsComments
TimeDGPSUTC
LatitudeDGPSDM.mWGS84
LongitudeDGPSDM.mWGS84
SpeedMeteo Stationm/sRelative wind speed
DirectionMeteo StationdegRelative wind direction
TemperatureMeteo Stationdeg CelciusAir temperature
PressureMeteo StationPaAtmospheric pressure
HumidityMeteo Station%Relative humidity
Missing or incorrect values are displayed as -999
Metereological data collected by the RV Zeeleeuw from 2010-05-25 07:35:30 to 2010-05-25 14:38:49
                                                                                    Next 1000 lines
Time Latitude Longitude Speed Direction Temperature Pressure Humidity
2010-05-25 07:35:40 51°13.661 2°55.96 2.9 19 14.8 101230 41
2010-05-25 07:35:45 51°13.661 2°55.96 2.1 307 14.8 101230 41
2010-05-25 07:35:50 51°13.661 2°55.96 5 23 14.8 101230 38
2010-05-25 07:35:55 51°13.661 2°55.96 4.8 282 14.8 101230 38
2010-05-25 07:36:00 51°13.66 2°55.96 4 27 14.8 101230 38
2010-05-25 07:36:05 51°13.661 2°55.959 4.2 308 14.8 101230 38
2010-05-25 07:36:10 51°13.661 2°55.957 2.6 21 14.8 101230 42
2010-05-25 07:36:15 51°13.662 2°55.954 3.3 302 14.8 101230 42
2010-05-25 07:36:20 51°13.663 2°55.95 4.7 23 14.8 101230 42
2010-05-25 07:36:25 51°13.664 2°55.946 3 302 14.8 101230 42
2010-05-25 07:36:30 51°13.665 2°55.94 3.7 22 14.8 101230 39
2010-05-25 07:36:36 51°13.667 2°55.932 2.9 302 14.8 101230 39
2010-05-25 07:36:41 51°13.669 2°55.925 3.1 248 14.8 101230 39
2010-05-25 07:36:47 51°13.671 2°55.915 2.1 306 14.8 101230 39
2010-05-25 07:36:52 51°13.672 2°55.907 3.3 23 14.8 101220 41
2010-05-25 07:36:58 51°13.675 2°55.896 1.8 308 14.8 101220 41
2010-05-25 07:37:03 51°13.677 2°55.886 1.5 246 14.8 101230 38
2010-05-25 07:37:08 51°13.678 2°55.877 1.4 307 14.8 101230 38
2010-05-25 07:37:13 51°13.68 2°55.868 0.8 28 14.8 101230 39
2010-05-25 07:37:18 51°13.682 2°55.858 2.6 303 14.8 101230 39
2010-05-25 07:37:23 51°13.683 2°55.849 1.9 319 14.8 101230 41
2010-05-25 07:37:28 51°13.685 2°55.84 2.6 308 14.8 101230 41
2010-05-25 07:37:33 51°13.686 2°55.831 2.5 21 14.8 101230 38
2010-05-25 07:37:38 51°13.688 2°55.822 2 303 14.8 101230 38
2010-05-25 07:37:43 51°13.689 2°55.813 3.6 25 14.8 101220 43
2010-05-25 07:37:48 51°13.691 2°55.805 2.5 303 14.8 101220 43
2010-05-25 07:37:53 51°13.692 2°55.797 3.3 324 14.8 101220 40
2010-05-25 07:37:58 51°13.693 2°55.789 1.3 283 14.8 101220 40
2010-05-25 07:38:03 51°13.694 2°55.782 1 332 14.8 101220 42
2010-05-25 07:38:08 51°13.695 2°55.775 1.5 325 14.8 101220 42
2010-05-25 07:38:12 51°13.695 2°55.769 1.8 328 14.8 101220 42
2010-05-25 07:38:17 51°13.696 2°55.762 1.3 324 14.8 101220 42
2010-05-25 07:38:22 51°13.697 2°55.756 0.3 319 14.8 101220 37
2010-05-25 07:38:27 51°13.698 2°55.751 1.7 308 14.8 101220 37
2010-05-25 07:38:32 51°13.698 2°55.747 1.9 331 14.7 101220 39
2010-05-25 07:38:36 51°13.698 2°55.745 3.8 349 14.7 101220 39
2010-05-25 07:38:41 51°13.699 2°55.743 2.7 336 14.8 101220 42
2010-05-25 07:38:46 51°13.699 2°55.743 2.2 347 14.8 101220 42
2010-05-25 07:38:51 51°13.7 2°55.743 2.5 332 14.8 101220 38
2010-05-25 07:38:56 51°13.701 2°55.743 2.9 278 14.8 101220 38
2010-05-25 07:39:00 51°13.701 2°55.743 2.9 334 14.7 101220 39
2010-05-25 07:39:05 51°13.702 2°55.744 2.2 335 14.7 101220 39
2010-05-25 07:39:10 51°13.703 2°55.744 1.7 332 14.7 101220 38
2010-05-25 07:39:15 51°13.704 2°55.744 2 333 14.7 101220 38
2010-05-25 07:39:20 51°13.704 2°55.743 1.9 338 14.7 101220 38
2010-05-25 07:39:24 51°13.704 2°55.742 0.8 356 14.7 101220 38
2010-05-25 07:39:30 51°13.703 2°55.74 0.2 4 14.8 101220 42
2010-05-25 07:39:35 51°13.701 2°55.737 2 9 14.8 101220 42
2010-05-25 07:39:40 51°13.7 2°55.735 1.3 15 14.8 101220 38
2010-05-25 07:39:44 51°13.699 2°55.733 1.4 5 14.8 101220 38
2010-05-25 07:39:50 51°13.697 2°55.731 2.3 350 14.8 101230 40
2010-05-25 07:39:56 51°13.695 2°55.728 3.2 357 14.8 101230 40
2010-05-25 07:40:01 51°13.694 2°55.726 3.7 339 14.8 101220 42
2010-05-25 07:40:07 51°13.692 2°55.725 3.8 343 14.8 101220 42
2010-05-25 07:40:12 51°13.693 2°55.724 3.6 335 14.8 101220 39
2010-05-25 07:40:18 51°13.693 2°55.723 4.3 338 14.8 101220 39
2010-05-25 07:40:23 51°13.695 2°55.723 3.8 352 14.8 101230 42
2010-05-25 07:40:28 51°13.697 2°55.722 5.5 354 14.8 101230 42
2010-05-25 07:40:33 51°13.7 2°55.721 4.3 344 14.8 101230 39
2010-05-25 07:40:38 51°13.704 2°55.719 4.5 359 14.8 101230 39
2010-05-25 07:40:43 51°13.707 2°55.718 5.1 356 14.8 101220 40
2010-05-25 07:40:48 51°13.712 2°55.715 5.1 1 14.8 101220 40
2010-05-25 07:40:53 51°13.717 2°55.713 4.5 356 14.8 101220 39
2010-05-25 07:40:57 51°13.722 2°55.71 3.5 282 14.8 101220 39
2010-05-25 07:41:02 51°13.728 2°55.707 4.4 347 14.7 101220 39
2010-05-25 07:41:08 51°13.735 2°55.702 5.5 351 14.7 101220 39
2010-05-25 07:41:12 51°13.741 2°55.699 5.5 347 14.7 101220 42
2010-05-25 07:41:16 51°13.747 2°55.695 6.3 350 14.7 101220 42
2010-05-25 07:41:21 51°13.754 2°55.69 5.3 347 14.7 101220 39
2010-05-25 07:41:26 51°13.762 2°55.685 5.7 349 14.7 101220 39
2010-05-25 07:41:31 51°13.77 2°55.68 6.8 352 14.7 101210 42
2010-05-25 07:41:36 51°13.778 2°55.674 7.6 351 14.7 101210 42
2010-05-25 07:41:40 51°13.785 2°55.669 6.4 356 14.7 101220 42
2010-05-25 07:41:45 51°13.793 2°55.662 7 347 14.7 101220 42
2010-05-25 07:41:50 51°13.802 2°55.656 6.7 353 14.6 101220 40
2010-05-25 07:41:55 51°13.811 2°55.649 6.9 352 14.6 101220 40
2010-05-25 07:42:00 51°13.82 2°55.642 6.2 352 14.6 101210 41
2010-05-25 07:42:05 51°13.829 2°55.635 6 350 14.6 101210 41
2010-05-25 07:42:10 51°13.839 2°55.627 5.8 350 14.5 101210 39
2010-05-25 07:42:15 51°13.848 2°55.619 5.7 354 14.5 101210 39
2010-05-25 07:42:20 51°13.857 2°55.611 6.7 352 14.5 101220 41
2010-05-25 07:42:25 51°13.867 2°55.603 7 352 14.5 101220 41
2010-05-25 07:42:30 51°13.877 2°55.595 6.7 350 14.4 101220 39
2010-05-25 07:42:35 51°13.887 2°55.588 6.4 356 14.4 101220 39
2010-05-25 07:42:40 51°13.897 2°55.581 6.9 353 14.4 101210 40
2010-05-25 07:42:45 51°13.908 2°55.574 6.3 347 14.4 101210 40
2010-05-25 07:42:50 51°13.918 2°55.567 6.6 353 14.3 101210 39
2010-05-25 07:42:55 51°13.928 2°55.56 6.3 278 14.3 101210 39
2010-05-25 07:43:00 51°13.939 2°55.552 5.6 354 14.3 101210 40
2010-05-25 07:43:05 51°13.949 2°55.545 6.4 352 14.3 101210 40
2010-05-25 07:43:10 51°13.959 2°55.538 6.5 357 14.2 101220 39
2010-05-25 07:43:15 51°13.97 2°55.53 7.3 352 14.2 101220 39
2010-05-25 07:43:20 51°13.98 2°55.523 7 357 14.2 101220 39
2010-05-25 07:43:24 51°13.989 2°55.517 6.7 352 14.2 101220 39
2010-05-25 07:43:30 51°14.002 2°55.508 7.9 350 14.2 101220 41
2010-05-25 07:43:35 51°14.012 2°55.501 6.1 344 14.2 101220 41
2010-05-25 07:43:40 51°14.023 2°55.493 6.8 353 14.1 101210 38
2010-05-25 07:43:44 51°14.031 2°55.487 7.4 352 14.1 101210 38
2010-05-25 07:43:50 51°14.044 2°55.477 7.4 347 14.1 101210 39
2010-05-25 07:43:55 51°14.055 2°55.469 8.2 359 14.1 101210 39
2010-05-25 07:44:00 51°14.065 2°55.461 7.3 1 14.1 101220 40
2010-05-25 07:44:05 51°14.076 2°55.453 7.5 354 14.1 101220 40
2010-05-25 07:44:09 51°14.085 2°55.447 8.3 352 14.1 101210 41
2010-05-25 07:44:15 51°14.097 2°55.436 7.9 358 14.1 101210 41
2010-05-25 07:44:20 51°14.108 2°55.427 8.6 354 14 101210 40
2010-05-25 07:44:24 51°14.117 2°55.42 7.3 351 14 101210 40
2010-05-25 07:44:30 51°14.13 2°55.409 8.7 354 14 101210 39
2010-05-25 07:44:35 51°14.142 2°55.4 9.7 358 14 101210 39
2010-05-25 07:44:40 51°14.153 2°55.391 8.4 356 13.9 101210 41
2010-05-25 07:44:45 51°14.165 2°55.382 6.8 357 13.9 101210 41
2010-05-25 07:44:50 51°14.177 2°55.373 7.4 353 13.9 101210 39
2010-05-25 07:44:55 51°14.188 2°55.363 7.1 353 13.9 101210 39
2010-05-25 07:45:00 51°14.2 2°55.354 7.9 350 13.9 101200 39
2010-05-25 07:45:05 51°14.212 2°55.344 9.1 355 13.9 101200 39
2010-05-25 07:45:10 51°14.224 2°55.333 9.5 356 13.9 101220 39
2010-05-25 07:45:15 51°14.236 2°55.322 8.6 357 13.9 101220 39
2010-05-25 07:45:20 51°14.248 2°55.311 12.1 355 13.9 101220 42
2010-05-25 07:45:25 51°14.26 2°55.299 10.5 358 13.9 101220 42
2010-05-25 07:45:30 51°14.272 2°55.287 9.9 -999 13.8 101220 40
2010-05-25 07:45:35 51°14.285 2°55.275 9 355 13.8 101220 40
2010-05-25 07:45:40 51°14.297 2°55.263 9.2 358 13.8 101210 39
2010-05-25 07:45:44 51°14.307 2°55.253 8.5 354 13.8 101210 39
2010-05-25 07:45:50 51°14.322 2°55.238 8.8 356 13.7 101200 40
2010-05-25 07:45:55 51°14.335 2°55.225 10 358 13.7 101200 40
2010-05-25 07:46:00 51°14.348 2°55.213 10 355 13.6 101200 40
2010-05-25 07:46:05 51°14.362 2°55.201 10 357 13.6 101200 40
2010-05-25 07:46:10 51°14.375 2°55.189 11.7 2 13.6 101200 41
2010-05-25 07:46:15 51°14.388 2°55.175 9.7 2 13.6 101200 41
2010-05-25 07:46:20 51°14.401 2°55.161 11.1 359 13.6 101200 39
2010-05-25 07:46:24 51°14.411 2°55.149 9.7 360 13.6 101200 39
2010-05-25 07:46:30 51°14.426 2°55.13 9.6 1 13.6 101200 40
2010-05-25 07:46:35 51°14.439 2°55.115 9.3 1 13.6 101200 40
2010-05-25 07:46:40 51°14.452 2°55.099 9.9 359 13.5 101190 40
2010-05-25 07:46:45 51°14.465 2°55.083 10.3 357 13.5 101190 40
2010-05-25 07:46:49 51°14.475 2°55.071 10.2 360 13.4 101190 41
2010-05-25 07:46:55 51°14.492 2°55.052 10.9 -999 13.4 101190 41
2010-05-25 07:47:00 51°14.506 2°55.037 10.3 359 13.4 101200 40
2010-05-25 07:47:05 51°14.52 2°55.022 9.8 360 13.4 101200 40
2010-05-25 07:47:10 51°14.535 2°55.008 10.4 359 13.4 101200 42
2010-05-25 07:47:15 51°14.55 2°54.993 10.2 356 13.4 101200 42
2010-05-25 07:47:20 51°14.565 2°54.978 9.8 358 13.3 101190 40
2010-05-25 07:47:25 51°14.579 2°54.963 11.1 -999 13.3 101190 40
2010-05-25 07:47:30 51°14.593 2°54.946 11 357 13.3 101190 40
2010-05-25 07:47:35 51°14.607 2°54.928 10.4 1 13.3 101190 40
2010-05-25 07:47:40 51°14.621 2°54.91 10.9 1 13.3 101200 40
2010-05-25 07:47:44 51°14.632 2°54.895 9.8 1 13.3 101200 40
2010-05-25 07:47:50 51°14.648 2°54.872 8.7 1 13.3 101190 42
2010-05-25 07:47:55 51°14.662 2°54.852 9.2 358 13.3 101190 42
2010-05-25 07:48:00 51°14.676 2°54.833 9.9 358 13.2 101190 42
2010-05-25 07:48:04 51°14.687 2°54.818 9.5 357 13.2 101190 42
2010-05-25 07:48:10 51°14.703 2°54.795 10.6 359 13.2 101190 40
2010-05-25 07:48:15 51°14.717 2°54.776 9.3 2 13.2 101190 40
2010-05-25 07:48:20 51°14.731 2°54.757 9.7 2 13.2 101190 40
2010-05-25 07:48:24 51°14.743 2°54.743 10.2 360 13.2 101190 40
2010-05-25 07:48:30 51°14.761 2°54.722 10.4 356 13.2 101190 40
2010-05-25 07:48:35 51°14.776 2°54.706 10.5 358 13.2 101190 40
2010-05-25 07:48:40 51°14.791 2°54.691 10.3 358 13.1 101190 40
2010-05-25 07:48:44 51°14.804 2°54.679 11.4 1 13.1 101190 40
2010-05-25 07:48:50 51°14.822 2°54.66 12 360 13.1 101190 40
2010-05-25 07:48:55 51°14.838 2°54.644 11.7 1 13.1 101190 40
2010-05-25 07:49:00 51°14.853 2°54.627 10.3 -999 13.1 101190 40
2010-05-25 07:49:05 51°14.868 2°54.612 11.1 359 13.1 101190 40
2010-05-25 07:49:10 51°14.883 2°54.595 10 1 13.1 101190 41
2010-05-25 07:49:15 51°14.899 2°54.58 10.5 359 13.1 101190 41
2010-05-25 07:49:20 51°14.914 2°54.564 11.5 359 13.1 101190 41
2010-05-25 07:49:25 51°14.929 2°54.548 10 359 13.1 101190 41
2010-05-25 07:49:30 51°14.944 2°54.531 9.5 2 13 101200 40
2010-05-25 07:49:35 51°14.959 2°54.515 9.9 359 13 101200 40
2010-05-25 07:49:40 51°14.974 2°54.499 11.8 357 13 101190 40
2010-05-25 07:49:45 51°14.989 2°54.483 11.1 360 13 101190 40
2010-05-25 07:49:50 51°15.004 2°54.467 11.1 359 13 101190 40
2010-05-25 07:49:55 51°15.019 2°54.45 10.6 359 13 101190 40
2010-05-25 07:50:00 51°15.034 2°54.434 9.1 357 13 101190 41
2010-05-25 07:50:05 51°15.049 2°54.418 10.7 2 13 101190 41
2010-05-25 07:50:10 51°15.064 2°54.401 9.9 359 12.9 101190 40
2010-05-25 07:50:15 51°15.079 2°54.384 9.3 1 12.9 101190 40
2010-05-25 07:50:20 51°15.093 2°54.366 9.7 1 12.9 101200 40
2010-05-25 07:50:24 51°15.104 2°54.351 9.2 3 12.9 101200 40
2010-05-25 07:50:30 51°15.121 2°54.329 9.7 2 12.9 101200 41
2010-05-25 07:50:35 51°15.135 2°54.309 9.8 3 12.9 101200 41
2010-05-25 07:50:40 51°15.148 2°54.29 8.1 4 12.9 101200 41
2010-05-25 07:50:44 51°15.159 2°54.274 9.6 2 12.9 101200 41
2010-05-25 07:50:50 51°15.175 2°54.25 8.8 1 12.9 101200 40
2010-05-25 07:50:55 51°15.189 2°54.231 9.3 359 12.9 101200 40
2010-05-25 07:51:00 51°15.203 2°54.212 8.2 1 12.9 101200 41
2010-05-25 07:51:04 51°15.214 2°54.196 9.5 2 12.9 101200 41
2010-05-25 07:51:10 51°15.231 2°54.175 10.3 2 12.9 101200 42
2010-05-25 07:51:15 51°15.245 2°54.156 9.2 359 12.9 101200 42
2010-05-25 07:51:20 51°15.26 2°54.138 9.8 360 12.9 101210 41
2010-05-25 07:51:25 51°15.274 2°54.119 9.9 358 12.9 101210 41
2010-05-25 07:51:30 51°15.288 2°54.101 9.5 359 12.9 101200 42
2010-05-25 07:51:35 51°15.303 2°54.083 9.8 360 12.9 101200 42
2010-05-25 07:51:40 51°15.317 2°54.065 9.8 2 12.9 101200 41
2010-05-25 07:51:45 51°15.331 2°54.046 9.9 1 12.9 101200 41
2010-05-25 07:51:50 51°15.345 2°54.028 9.6 1 12.9 101210 40
2010-05-25 07:51:55 51°15.36 2°54.009 9 3 12.9 101210 40
2010-05-25 07:52:00 51°15.374 2°53.991 9.7 4 12.9 101200 40
2010-05-25 07:52:05 51°15.388 2°53.973 9.1 359 12.9 101200 40
2010-05-25 07:52:10 51°15.402 2°53.954 8.7 4 12.9 101210 40
2010-05-25 07:52:15 51°15.416 2°53.935 8.8 2 12.9 101210 40
2010-05-25 07:52:20 51°15.43 2°53.917 8.4 2 12.9 101200 41
2010-05-25 07:52:24 51°15.441 2°53.902 7.2 4 12.9 101200 41
2010-05-25 07:52:30 51°15.458 2°53.88 8.7 4 12.8 101200 40
2010-05-25 07:52:35 51°15.472 2°53.861 8.8 4 12.8 101200 40
2010-05-25 07:52:40 51°15.487 2°53.843 9.2 2 12.9 101210 40
2010-05-25 07:52:44 51°15.498 2°53.829 9.2 359 12.9 101210 40
2010-05-25 07:52:50 51°15.516 2°53.807 9.7 1 12.9 101210 42
2010-05-25 07:52:55 51°15.53 2°53.789 9.5 2 12.9 101210 42
2010-05-25 07:53:00 51°15.544 2°53.771 8.3 2 12.8 101210 41
2010-05-25 07:53:05 51°15.558 2°53.753 9.1 5 12.8 101210 41
2010-05-25 07:53:10 51°15.572 2°53.735 9.4 4 12.9 101200 40
2010-05-25 07:53:15 51°15.587 2°53.716 7.9 2 12.9 101200 40
2010-05-25 07:53:20 51°15.601 2°53.698 9.1 1 12.8 101210 40
2010-05-25 07:53:25 51°15.615 2°53.679 8.8 359 12.8 101210 40
2010-05-25 07:53:30 51°15.629 2°53.661 8.8 2 12.8 101200 42
2010-05-25 07:53:35 51°15.643 2°53.643 8.7 359 12.8 101200 42
2010-05-25 07:53:40 51°15.658 2°53.626 9.4 -999 12.8 101210 40
2010-05-25 07:53:45 51°15.672 2°53.609 9.3 1 12.8 101210 40
2010-05-25 07:53:50 51°15.687 2°53.592 11.3 359 12.8 101210 40
2010-05-25 07:53:55 51°15.702 2°53.574 10.6 -999 12.8 101210 40
2010-05-25 07:54:00 51°15.717 2°53.558 10.7 357 12.8 101210 41
2010-05-25 07:54:05 51°15.732 2°53.542 10.1 -999 12.8 101210 41
2010-05-25 07:54:10 51°15.747 2°53.526 10.5 359 12.9 101210 40
2010-05-25 07:54:15 51°15.762 2°53.51 11 357 12.9 101210 40
2010-05-25 07:54:20 51°15.777 2°53.494 10.5 358 12.9 101210 40
2010-05-25 07:54:24 51°15.789 2°53.482 11.3 -999 12.9 101210 40
2010-05-25 07:54:30 51°15.807 2°53.463 11.5 359 12.9 101210 40
2010-05-25 07:54:35 51°15.823 2°53.449 10.6 1 12.9 101210 40
2010-05-25 07:54:40 51°15.839 2°53.434 9 359 12.9 101220 42
2010-05-25 07:54:44 51°15.851 2°53.422 11.2 358 12.9 101220 42
2010-05-25 07:54:50 51°15.87 2°53.405 11.3 359 12.8 101210 40
2010-05-25 07:54:55 51°15.885 2°53.39 12.4 359 12.8 101210 40
2010-05-25 07:55:00 51°15.901 2°53.376 11.9 358 12.8 101210 41
2010-05-25 07:55:04 51°15.914 2°53.365 4.4 358 12.8 101210 41
2010-05-25 07:55:10 51°15.932 2°53.348 10.4 359 12.8 101220 40
2010-05-25 07:55:15 51°15.948 2°53.334 11.8 355 12.8 101220 40
2010-05-25 07:55:20 51°15.963 2°53.319 11.2 358 12.8 101210 40
2010-05-25 07:55:24 51°15.976 2°53.308 10.3 356 12.8 101210 40
2010-05-25 07:55:30 51°15.995 2°53.29 10 356 12.8 101220 40
2010-05-25 07:55:35 51°16.011 2°53.276 11.4 357 12.8 101220 40
2010-05-25 07:55:40 51°16.026 2°53.262 10.9 358 12.8 101220 40
2010-05-25 07:55:44 51°16.039 2°53.25 12.5 358 12.8 101220 40
2010-05-25 07:55:50 51°16.057 2°53.233 10.5 357 12.8 101210 40
2010-05-25 07:55:55 51°16.073 2°53.219 11.1 359 12.8 101210 40
2010-05-25 07:56:00 51°16.088 2°53.204 10.6 -999 12.8 101220 41
2010-05-25 07:56:04 51°16.101 2°53.192 10.1 358 12.8 101220 41
2010-05-25 07:56:10 51°16.119 2°53.173 10.2 358 12.8 101220 41
2010-05-25 07:56:15 51°16.134 2°53.158 10.9 357 12.8 101220 41
2010-05-25 07:56:20 51°16.149 2°53.142 11 359 12.8 101210 41
2010-05-25 07:56:24 51°16.161 2°53.13 10.8 359 12.8 101210 41
2010-05-25 07:56:30 51°16.179 2°53.11 10.6 -999 12.8 101210 41
2010-05-25 07:56:35 51°16.194 2°53.095 11.2 359 12.8 101210 41
2010-05-25 07:56:40 51°16.209 2°53.079 10.9 2 12.8 101210 41
2010-05-25 07:56:45 51°16.224 2°53.063 10.2 359 12.8 101210 41
2010-05-25 07:56:50 51°16.239 2°53.046 9.8 359 12.8 101210 39
2010-05-25 07:56:55 51°16.254 2°53.03 9.6 356 12.8 101210 39
2010-05-25 07:57:00 51°16.27 2°53.015 9.9 357 12.8 101210 38
2010-05-25 07:57:04 51°16.282 2°53.002 10.4 358 12.8 101210 38
2010-05-25 07:57:10 51°16.3 2°52.983 10.6 359 12.7 101210 39
2010-05-25 07:57:15 51°16.314 2°52.967 10.4 359 12.7 101210 39
2010-05-25 07:57:20 51°16.329 2°52.95 9.6 359 12.8 101220 40
2010-05-25 07:57:24 51°16.341 2°52.936 10.2 1 12.8 101220 40
2010-05-25 07:57:30 51°16.358 2°52.916 10.5 359 12.8 101220 41
2010-05-25 07:57:35 51°16.373 2°52.899 9.4 2 12.8 101220 41
2010-05-25 07:57:40 51°16.387 2°52.881 8.4 1 12.8 101210 41
2010-05-25 07:57:44 51°16.399 2°52.867 9.6 359 12.8 101210 41
2010-05-25 07:57:50 51°16.416 2°52.847 10.7 359 12.7 101220 40
2010-05-25 07:57:55 51°16.43 2°52.829 10.6 356 12.7 101220 40
2010-05-25 07:58:00 51°16.444 2°52.811 9.2 2 12.7 101220 41
2010-05-25 07:58:04 51°16.456 2°52.797 9.4 -999 12.7 101220 41
2010-05-25 07:58:10 51°16.473 2°52.776 9.1 -999 12.8 101220 40
2010-05-25 07:58:15 51°16.487 2°52.758 10.2 359 12.8 101220 40
2010-05-25 07:58:20 51°16.502 2°52.741 9.8 358 12.8 101210 42
2010-05-25 07:58:25 51°16.516 2°52.724 9.9 359 12.8 101210 42
2010-05-25 07:58:30 51°16.53 2°52.706 9.2 359 12.8 101220 41
2010-05-25 07:58:35 51°16.544 2°52.688 9.1 1 12.8 101220 41
2010-05-25 07:58:40 51°16.559 2°52.67 9.8 1 12.7 101210 39
2010-05-25 07:58:45 51°16.572 2°52.652 8.7 1 12.7 101210 39
2010-05-25 07:58:50 51°16.587 2°52.634 9.5 357 12.8 101220 39
2010-05-25 07:58:55 51°16.6 2°52.615 8.6 3 12.8 101220 39
2010-05-25 07:59:00 51°16.614 2°52.596 8.7 2 12.7 101210 39
2010-05-25 07:59:04 51°16.625 2°52.581 10.1 1 12.7 101210 39
2010-05-25 07:59:10 51°16.641 2°52.559 9.9 2 12.8 101220 40
2010-05-25 07:59:15 51°16.655 2°52.541 8.3 3 12.8 101220 40
2010-05-25 07:59:20 51°16.669 2°52.522 8.4 4 12.7 101220 39
2010-05-25 07:59:24 51°16.68 2°52.507 9.4 -999 12.7 101220 39
2010-05-25 07:59:29 51°16.693 2°52.488 8.9 359 12.7 101220 39
2010-05-25 07:59:35 51°16.71 2°52.466 10.7 2 12.7 101220 39
2010-05-25 07:59:40 51°16.724 2°52.449 8.6 2 12.7 101210 40
2010-05-25 07:59:44 51°16.735 2°52.434 8.7 1 12.7 101210 40
2010-05-25 07:59:49 51°16.749 2°52.416 8.6 3 12.7 101220 41
2010-05-25 07:59:55 51°16.765 2°52.394 9.6 358 12.7 101220 41
2010-05-25 08:00:00 51°16.779 2°52.376 9.4 359 12.7 101220 39
2010-05-25 08:00:05 51°16.793 2°52.357 9.6 1 12.7 101220 39
2010-05-25 08:00:10 51°16.806 2°52.339 10 3 12.7 101220 40
2010-05-25 08:00:15 51°16.82 2°52.321 9.4 2 12.7 101220 40
2010-05-25 08:00:20 51°16.834 2°52.303 9.2 2 12.7 101220 41
2010-05-25 08:00:25 51°16.848 2°52.285 8.5 3 12.7 101220 41
2010-05-25 08:00:30 51°16.862 2°52.266 9.5 358 12.7 101230 41
2010-05-25 08:00:35 51°16.876 2°52.248 9.7 360 12.7 101230 41
2010-05-25 08:00:40 51°16.89 2°52.23 10.6 -999 12.7 101210 41
2010-05-25 08:00:45 51°16.904 2°52.213 11.4 359 12.7 101210 41
2010-05-25 08:00:50 51°16.919 2°52.197 12.2 358 12.7 101220 40
2010-05-25 08:00:55 51°16.934 2°52.182 12.5 358 12.7 101220 40
2010-05-25 08:01:00 51°16.95 2°52.17 10.7 356 12.7 101220 40
2010-05-25 08:01:05 51°16.966 2°52.159 11.6 354 12.7 101220 40
2010-05-25 08:01:10 51°16.983 2°52.149 11 356 12.7 101220 41
2010-05-25 08:01:15 51°16.999 2°52.139 10.7 356 12.7 101220 41
2010-05-25 08:01:20 51°17.016 2°52.129 10.3 355 12.7 101220 40
2010-05-25 08:01:24 51°17.028 2°52.12 13.4 355 12.7 101220 40
2010-05-25 08:01:30 51°17.048 2°52.108 12.2 357 12.7 101220 39
2010-05-25 08:01:35 51°17.065 2°52.097 11.9 353 12.7 101220 39
2010-05-25 08:01:40 51°17.081 2°52.087 11.5 352 12.6 101220 40
2010-05-25 08:01:44 51°17.094 2°52.08 11 351 12.6 101220 40
2010-05-25 08:01:50 51°17.115 2°52.07 12.7 352 12.7 101220 40
2010-05-25 08:01:55 51°17.131 2°52.062 11.9 278 12.7 101220 40
2010-05-25 08:02:00 51°17.148 2°52.055 12.8 352 12.7 101220 40
2010-05-25 08:02:04 51°17.162 2°52.05 12.9 351 12.7 101220 40
2010-05-25 08:02:10 51°17.183 2°52.041 13.4 352 12.7 101210 41
2010-05-25 08:02:15 51°17.2 2°52.035 11.3 351 12.7 101210 41
2010-05-25 08:02:20 51°17.217 2°52.029 12.1 351 12.6 101220 39
2010-05-25 08:02:24 51°17.23 2°52.024 13.1 353 12.6 101220 39
2010-05-25 08:02:30 51°17.251 2°52.016 12.1 353 12.6 101220 41
2010-05-25 08:02:35 51°17.268 2°52.011 11.6 354 12.6 101220 41
2010-05-25 08:02:40 51°17.285 2°52.004 11.6 354 12.6 101220 41
2010-05-25 08:02:44 51°17.299 2°51.999 13.2 350 12.6 101220 41
2010-05-25 08:02:50 51°17.319 2°51.99 13.4 353 12.6 101220 40
2010-05-25 08:02:55 51°17.336 2°51.984 12.1 354 12.6 101220 40
2010-05-25 08:03:00 51°17.353 2°51.977 11 354 12.6 101220 40
2010-05-25 08:03:05 51°17.37 2°51.969 11.6 355 12.6 101220 40
2010-05-25 08:03:10 51°17.387 2°51.96 11.7 355 12.6 101230 40
2010-05-25 08:03:15 51°17.404 2°51.951 11.5 357 12.6 101230 40
2010-05-25 08:03:20 51°17.42 2°51.942 10.7 358 12.6 101210 41
2010-05-25 08:03:25 51°17.437 2°51.933 10.3 354 12.6 101210 41
2010-05-25 08:03:30 51°17.453 2°51.922 12.3 358 12.6 101220 39
2010-05-25 08:03:35 51°17.47 2°51.912 12.2 -999 12.6 101220 39
2010-05-25 08:03:40 51°17.486 2°51.9 11.4 360 12.6 101220 40
2010-05-25 08:03:44 51°17.499 2°51.893 11.4 358 12.6 101220 40
2010-05-25 08:03:50 51°17.519 2°51.879 9.6 354 12.6 101230 40
2010-05-25 08:03:55 51°17.535 2°51.868 11.6 356 12.6 101230 40
2010-05-25 08:04:00 51°17.552 2°51.857 12.5 355 12.6 101220 40
2010-05-25 08:04:04 51°17.565 2°51.849 13 355 12.6 101220 40
2010-05-25 08:04:10 51°17.584 2°51.835 12.4 356 12.6 101220 39
2010-05-25 08:04:15 51°17.601 2°51.825 12.2 357 12.6 101220 39
2010-05-25 08:04:20 51°17.617 2°51.814 12 355 12.6 101220 41
2010-05-25 08:04:24 51°17.63 2°51.805 11.1 358 12.6 101220 41
2010-05-25 08:04:30 51°17.65 2°51.793 11.7 356 12.6 101220 40
2010-05-25 08:04:35 51°17.667 2°51.783 12.9 357 12.6 101220 40
2010-05-25 08:04:40 51°17.683 2°51.773 11.6 357 12.6 101210 40
2010-05-25 08:04:44 51°17.696 2°51.765 10.5 354 12.6 101210 40
2010-05-25 08:04:50 51°17.716 2°51.755 12.3 355 12.6 101210 41
2010-05-25 08:04:55 51°17.733 2°51.746 13.4 356 12.6 101210 41
2010-05-25 08:05:00 51°17.75 2°51.738 12.2 357 12.6 101220 39
2010-05-25 08:05:04 51°17.763 2°51.731 10.8 353 12.6 101220 39
2010-05-25 08:05:10 51°17.784 2°51.722 11.6 354 12.6 101220 40
2010-05-25 08:05:15 51°17.801 2°51.714 12.6 353 12.6 101220 40
2010-05-25 08:05:20 51°17.818 2°51.707 11.9 354 12.6 101220 41
2010-05-25 08:05:24 51°17.832 2°51.702 13.4 354 12.6 101220 41
2010-05-25 08:05:30 51°17.852 2°51.694 12.3 355 12.6 101230 39
2010-05-25 08:05:35 51°17.87 2°51.687 11.2 354 12.6 101230 39
2010-05-25 08:05:40 51°17.887 2°51.68 12.9 353 12.6 101220 39
2010-05-25 08:05:45 51°17.904 2°51.674 12.9 354 12.6 101220 39
2010-05-25 08:05:50 51°17.921 2°51.668 12 351 12.6 101220 41
2010-05-25 08:05:55 51°17.939 2°51.662 13.2 352 12.6 101220 41
2010-05-25 08:06:00 51°17.956 2°51.657 11.5 354 12.6 101230 40
2010-05-25 08:06:04 51°17.97 2°51.653 12.2 352 12.6 101230 40
2010-05-25 08:06:10 51°17.991 2°51.647 12.2 352 12.6 101210 39
2010-05-25 08:06:15 51°18.009 2°51.643 13.6 350 12.6 101210 39
2010-05-25 08:06:20 51°18.026 2°51.639 13.3 353 12.6 101230 39
2010-05-25 08:06:24 51°18.04 2°51.636 13.2 353 12.6 101230 39
2010-05-25 08:06:30 51°18.061 2°51.631 11.5 353 12.6 101220 39
2010-05-25 08:06:35 51°18.079 2°51.626 13.3 353 12.6 101220 39
2010-05-25 08:06:40 51°18.096 2°51.621 12.1 353 12.6 101210 39
2010-05-25 08:06:44 51°18.11 2°51.618 12.6 351 12.6 101210 39
2010-05-25 08:06:50 51°18.131 2°51.614 10.4 352 12.6 101210 41
2010-05-25 08:06:55 51°18.149 2°51.611 11.4 349 12.6 101210 41
2010-05-25 08:07:00 51°18.167 2°51.608 12.5 352 12.6 101220 40
2010-05-25 08:07:05 51°18.184 2°51.605 13.5 350 12.6 101220 40
2010-05-25 08:07:10 51°18.202 2°51.603 12.1 351 12.6 101210 40
2010-05-25 08:07:15 51°18.22 2°51.6 13.7 351 12.6 101210 40
2010-05-25 08:07:20 51°18.237 2°51.597 13.6 352 12.6 101220 39
2010-05-25 08:07:25 51°18.255 2°51.594 12.8 353 12.6 101220 39
2010-05-25 08:07:30 51°18.272 2°51.59 12 352 12.7 101230 40
2010-05-25 08:07:35 51°18.29 2°51.588 12.4 349 12.7 101230 40
2010-05-25 08:07:40 51°18.308 2°51.585 12.4 351 12.6 101220 38
2010-05-25 08:07:45 51°18.325 2°51.583 12.9 348 12.6 101220 38
2010-05-25 08:07:50 51°18.343 2°51.58 13.7 349 12.6 101220 39
2010-05-25 08:07:55 51°18.36 2°51.577 13.9 349 12.6 101220 39
2010-05-25 08:08:00 51°18.378 2°51.575 13.3 350 12.7 101220 39
2010-05-25 08:08:04 51°18.392 2°51.573 13.6 350 12.7 101220 39
2010-05-25 08:08:10 51°18.413 2°51.57 13.2 352 12.7 101220 40
2010-05-25 08:08:15 51°18.431 2°51.568 13 351 12.7 101220 40
2010-05-25 08:08:20 51°18.449 2°51.565 11.7 349 12.7 101220 39
2010-05-25 08:08:24 51°18.463 2°51.563 12 350 12.7 101220 39
2010-05-25 08:08:30 51°18.483 2°51.559 11.5 347 12.7 101210 40
2010-05-25 08:08:35 51°18.501 2°51.556 13 350 12.7 101210 40
2010-05-25 08:08:40 51°18.518 2°51.553 12.8 350 12.7 101220 39
2010-05-25 08:08:45 51°18.534 2°51.551 13.1 350 12.7 101220 39
2010-05-25 08:08:50 51°18.551 2°51.549 12.5 352 12.7 101230 40
2010-05-25 08:08:55 51°18.568 2°51.546 10.7 352 12.7 101230 40
2010-05-25 08:09:00 51°18.584 2°51.544 12.9 352 12.7 101220 40
2010-05-25 08:09:05 51°18.6 2°51.541 12.7 353 12.7 101220 40
2010-05-25 08:09:10 51°18.617 2°51.539 12.2 350 12.7 101230 41
2010-05-25 08:09:15 51°18.633 2°51.536 11.9 352 12.7 101230 41
2010-05-25 08:09:20 51°18.649 2°51.534 12.6 353 12.7 101210 41
2010-05-25 08:09:25 51°18.665 2°51.531 11.3 351 12.7 101210 41
2010-05-25 08:09:30 51°18.681 2°51.529 11.7 351 12.6 101220 40
2010-05-25 08:09:35 51°18.698 2°51.526 11.7 351 12.6 101220 40
2010-05-25 08:09:40 51°18.714 2°51.524 13.1 351 12.7 101220 41
2010-05-25 08:09:45 51°18.73 2°51.522 12 352 12.7 101220 41
2010-05-25 08:09:50 51°18.746 2°51.519 11.7 349 12.6 101220 40
2010-05-25 08:09:55 51°18.762 2°51.517 12.2 278 12.6 101220 40
2010-05-25 08:10:00 51°18.779 2°51.514 12 350 12.7 101220 39
2010-05-25 08:10:05 51°18.795 2°51.511 11.9 351 12.7 101220 39
2010-05-25 08:10:10 51°18.811 2°51.508 11 347 12.6 101220 40
2010-05-25 08:10:15 51°18.827 2°51.506 13.4 349 12.6 101220 40
2010-05-25 08:10:20 51°18.843 2°51.504 13 350 12.7 101230 38
2010-05-25 08:10:24 51°18.856 2°51.502 12.2 351 12.7 101230 38
2010-05-25 08:10:30 51°18.876 2°51.499 11.2 350 12.7 101220 39
2010-05-25 08:10:35 51°18.892 2°51.496 11.4 348 12.7 101220 39
2010-05-25 08:10:40 51°18.908 2°51.493 12.1 351 12.7 101230 41
2010-05-25 08:10:44 51°18.921 2°51.491 14.1 350 12.7 101230 41
2010-05-25 08:10:50 51°18.94 2°51.488 12.4 350 12.7 101220 39
2010-05-25 08:10:55 51°18.956 2°51.485 12.6 350 12.7 101220 39
2010-05-25 08:11:00 51°18.972 2°51.482 10.8 346 12.7 101230 40
2010-05-25 08:11:04 51°18.985 2°51.48 13 348 12.7 101230 40
2010-05-25 08:11:10 51°19.005 2°51.477 12.4 349 12.7 101220 40
2010-05-25 08:11:15 51°19.021 2°51.475 12.9 350 12.7 101220 40
2010-05-25 08:11:20 51°19.037 2°51.473 12.6 348 12.7 101220 40
2010-05-25 08:11:24 51°19.05 2°51.471 12.2 350 12.7 101220 40
2010-05-25 08:11:30 51°19.07 2°51.469 12.2 349 12.7 101230 41
2010-05-25 08:11:35 51°19.086 2°51.467 12.2 349 12.7 101230 41
2010-05-25 08:11:40 51°19.102 2°51.464 12 350 12.7 101220 41
2010-05-25 08:11:44 51°19.115 2°51.462 12.7 349 12.7 101220 41
2010-05-25 08:11:50 51°19.135 2°51.459 12.8 349 12.7 101220 41
2010-05-25 08:11:55 51°19.151 2°51.457 12 349 12.7 101220 41
2010-05-25 08:12:00 51°19.168 2°51.455 13.6 350 12.7 101220 40
2010-05-25 08:12:05 51°19.184 2°51.453 12.5 351 12.7 101220 40
2010-05-25 08:12:10 51°19.2 2°51.451 14.4 350 12.7 101230 40
2010-05-25 08:12:15 51°19.217 2°51.449 12.5 351 12.7 101230 40
2010-05-25 08:12:20 51°19.233 2°51.448 12.4 349 12.6 101220 40
2010-05-25 08:12:24 51°19.246 2°51.446 12 350 12.6 101220 40
2010-05-25 08:12:30 51°19.266 2°51.444 13.3 350 12.6 101220 41
2010-05-25 08:12:35 51°19.282 2°51.442 12.4 351 12.6 101220 41
2010-05-25 08:12:40 51°19.299 2°51.44 11.8 351 12.6 101220 40
2010-05-25 08:12:44 51°19.312 2°51.438 12.9 349 12.6 101220 40
2010-05-25 08:12:50 51°19.331 2°51.436 12.2 350 12.6 101220 40
2010-05-25 08:12:55 51°19.348 2°51.435 11 349 12.6 101220 40
2010-05-25 08:13:00 51°19.364 2°51.433 13.1 350 12.5 101220 39
2010-05-25 08:13:04 51°19.377 2°51.431 12.6 350 12.5 101220 39
2010-05-25 08:13:10 51°19.397 2°51.429 12.6 350 12.5 101230 41
2010-05-25 08:13:15 51°19.414 2°51.426 14.1 349 12.5 101230 41
2010-05-25 08:13:20 51°19.43 2°51.424 13.4 350 12.6 101230 40
2010-05-25 08:13:24 51°19.444 2°51.423 13.3 350 12.6 101230 40
2010-05-25 08:13:30 51°19.464 2°51.42 13.1 351 12.6 101220 40
2010-05-25 08:13:35 51°19.48 2°51.418 13.3 350 12.6 101220 40
2010-05-25 08:13:40 51°19.497 2°51.416 14.1 350 12.5 101220 41
2010-05-25 08:13:45 51°19.513 2°51.414 13.3 349 12.5 101220 41
2010-05-25 08:13:50 51°19.53 2°51.412 11.7 351 12.5 101220 41
2010-05-25 08:13:55 51°19.546 2°51.41 11.3 352 12.5 101220 41
2010-05-25 08:14:00 51°19.563 2°51.408 11.5 351 12.5 101220 40
2010-05-25 08:14:05 51°19.579 2°51.406 12.6 351 12.5 101220 40
2010-05-25 08:14:10 51°19.596 2°51.404 11.2 347 12.5 101220 40
2010-05-25 08:14:15 51°19.612 2°51.402 12.1 349 12.5 101220 40
2010-05-25 08:14:20 51°19.629 2°51.4 13 349 12.5 101220 40
2010-05-25 08:14:25 51°19.645 2°51.398 12.3 350 12.5 101220 40
2010-05-25 08:14:30 51°19.662 2°51.396 12.5 348 12.5 101220 41
2010-05-25 08:14:35 51°19.678 2°51.394 13 350 12.5 101220 41
2010-05-25 08:14:40 51°19.695 2°51.392 13.4 351 12.5 101230 41
2010-05-25 08:14:45 51°19.711 2°51.39 13.1 351 12.5 101230 41
2010-05-25 08:14:50 51°19.727 2°51.387 13 351 12.4 101220 41
2010-05-25 08:14:55 51°19.744 2°51.385 12.8 350 12.4 101220 41
2010-05-25 08:15:00 51°19.76 2°51.383 12.5 349 12.4 101220 40
2010-05-25 08:15:04 51°19.773 2°51.381 12.6 351 12.4 101220 40
2010-05-25 08:15:10 51°19.793 2°51.379 11.8 349 12.4 101220 40
2010-05-25 08:15:15 51°19.809 2°51.377 11.4 350 12.4 101220 40
2010-05-25 08:15:20 51°19.825 2°51.375 13.1 352 12.4 101220 41
2010-05-25 08:15:25 51°19.842 2°51.373 12.4 352 12.4 101220 41
2010-05-25 08:15:30 51°19.858 2°51.371 11.7 352 12.3 101220 41
2010-05-25 08:15:35 51°19.874 2°51.368 10.9 350 12.3 101220 41
2010-05-25 08:15:40 51°19.89 2°51.366 10.9 351 12.3 101230 40
2010-05-25 08:15:45 51°19.907 2°51.363 10.4 350 12.3 101230 40
2010-05-25 08:15:50 51°19.923 2°51.361 11.6 350 12.3 101220 40
2010-05-25 08:15:55 51°19.939 2°51.359 12.1 352 12.3 101220 40
2010-05-25 08:16:00 51°19.956 2°51.356 12.7 351 12.3 101220 40
2010-05-25 08:16:05 51°19.972 2°51.354 12.3 351 12.3 101220 40
2010-05-25 08:16:10 51°19.988 2°51.352 11.7 350 12.3 101230 41
2010-05-25 08:16:15 51°20.004 2°51.35 12.6 351 12.3 101230 41
2010-05-25 08:16:20 51°20.02 2°51.348 12.6 352 12.3 101230 41
2010-05-25 08:16:25 51°20.037 2°51.347 11.3 353 12.3 101230 41
2010-05-25 08:16:30 51°20.053 2°51.345 11.2 350 12.3 101220 41
2010-05-25 08:16:35 51°20.069 2°51.343 12.7 349 12.3 101220 41
2010-05-25 08:16:40 51°20.085 2°51.341 14.2 351 12.3 101220 41
2010-05-25 08:16:45 51°20.101 2°51.339 13 353 12.3 101220 41
2010-05-25 08:16:50 51°20.117 2°51.336 12.7 351 12.3 101220 40
2010-05-25 08:16:55 51°20.134 2°51.335 12.5 349 12.3 101220 40
2010-05-25 08:17:00 51°20.15 2°51.333 11.4 351 12.3 101230 41
2010-05-25 08:17:04 51°20.163 2°51.332 13.1 351 12.3 101230 41
2010-05-25 08:17:10 51°20.182 2°51.33 11.8 350 12.3 101230 40
2010-05-25 08:17:15 51°20.199 2°51.328 12.1 350 12.3 101230 40
2010-05-25 08:17:20 51°20.215 2°51.326 12.5 350 12.3 101220 40
2010-05-25 08:17:24 51°20.228 2°51.324 12.4 352 12.3 101220 40
2010-05-25 08:17:30 51°20.247 2°51.322 12.3 351 12.2 101220 41
2010-05-25 08:17:35 51°20.263 2°51.32 12.9 351 12.2 101220 41
2010-05-25 08:17:40 51°20.28 2°51.318 11.8 350 12.3 101220 41
2010-05-25 08:17:44 51°20.293 2°51.316 12.3 350 12.3 101220 41
2010-05-25 08:17:50 51°20.312 2°51.314 12.1 350 12.2 101220 41
2010-05-25 08:17:55 51°20.328 2°51.312 13.1 351 12.2 101220 41
2010-05-25 08:18:00 51°20.344 2°51.31 13.1 352 12.2 101210 40
2010-05-25 08:18:04 51°20.357 2°51.308 12.2 353 12.2 101210 40
2010-05-25 08:18:10 51°20.377 2°51.305 11.6 351 12.2 101220 40
2010-05-25 08:18:15 51°20.393 2°51.303 11.9 351 12.2 101220 40
2010-05-25 08:18:20 51°20.409 2°51.301 11.1 350 12.2 101230 39
2010-05-25 08:18:24 51°20.422 2°51.299 13.1 350 12.2 101230 39
2010-05-25 08:18:30 51°20.442 2°51.296 13.8 350 12.2 101220 40
2010-05-25 08:18:35 51°20.458 2°51.294 14.7 352 12.2 101220 40
2010-05-25 08:18:40 51°20.475 2°51.291 14.7 351 12.2 101220 41
2010-05-25 08:18:45 51°20.491 2°51.289 14.6 351 12.2 101220 41
2010-05-25 08:18:50 51°20.507 2°51.287 12.9 352 12.2 101210 40
2010-05-25 08:18:55 51°20.523 2°51.284 11.8 353 12.2 101210 40
2010-05-25 08:19:00 51°20.539 2°51.282 10.7 349 12.2 101220 41
2010-05-25 08:19:05 51°20.555 2°51.28 12.8 349 12.2 101220 41
2010-05-25 08:19:10 51°20.572 2°51.278 13.4 350 12.1 101220 40
2010-05-25 08:19:15 51°20.588 2°51.276 13.1 351 12.1 101220 40
2010-05-25 08:19:20 51°20.604 2°51.273 11.8 352 12.1 101210 40
2010-05-25 08:19:24 51°20.617 2°51.272 13.5 350 12.1 101210 40
2010-05-25 08:19:30 51°20.637 2°51.27 11.3 350 12.2 101230 41
2010-05-25 08:19:35 51°20.653 2°51.268 11 350 12.2 101230 41
2010-05-25 08:19:40 51°20.67 2°51.266 10.7 351 12.1 101210 40
2010-05-25 08:19:44 51°20.683 2°51.264 12.3 351 12.1 101210 40
2010-05-25 08:19:50 51°20.703 2°51.262 12.8 350 12.1 101220 41
2010-05-25 08:19:55 51°20.719 2°51.261 12.7 351 12.1 101220 41
2010-05-25 08:20:00 51°20.735 2°51.258 12.1 350 12.2 101230 41
2010-05-25 08:20:04 51°20.748 2°51.256 13.5 352 12.2 101230 41
2010-05-25 08:20:10 51°20.768 2°51.254 12 352 12.1 101220 40
2010-05-25 08:20:15 51°20.785 2°51.252 13 351 12.1 101220 40
2010-05-25 08:20:20 51°20.801 2°51.249 10.8 349 12.1 101220 41
2010-05-25 08:20:24 51°20.814 2°51.248 13.2 350 12.1 101220 41
2010-05-25 08:20:30 51°20.834 2°51.245 13 351 12.1 101230 40
2010-05-25 08:20:35 51°20.85 2°51.242 14.1 350 12.1 101230 40
2010-05-25 08:20:40 51°20.866 2°51.24 12.7 351 12.1 101220 41
2010-05-25 08:20:45 51°20.883 2°51.238 13 348 12.1 101220 41
2010-05-25 08:20:50 51°20.9 2°51.236 12.9 352 12.1 101230 41
2010-05-25 08:20:55 51°20.916 2°51.235 12.4 351 12.1 101230 41
2010-05-25 08:21:00 51°20.932 2°51.233 12.5 351 12.1 101220 40
2010-05-25 08:21:05 51°20.949 2°51.231 12.4 351 12.1 101220 40
2010-05-25 08:21:10 51°20.965 2°51.228 12.5 352 12.1 101220 41
2010-05-25 08:21:15 51°20.982 2°51.226 13.8 351 12.1 101220 41
2010-05-25 08:21:20 51°20.998 2°51.223 13.9 352 12.1 101220 41
2010-05-25 08:21:24 51°21.011 2°51.221 12.2 352 12.1 101220 41
2010-05-25 08:21:30 51°21.031 2°51.219 11.8 352 12.1 101220 41
2010-05-25 08:21:35 51°21.047 2°51.216 11.6 352 12.1 101220 41
2010-05-25 08:21:40 51°21.063 2°51.214 11 350 12 101210 41
2010-05-25 08:21:44 51°21.077 2°51.212 11 350 12 101210 41
2010-05-25 08:21:50 51°21.096 2°51.21 12 348 12 101230 41
2010-05-25 08:21:55 51°21.113 2°51.208 12.2 350 12 101230 41
2010-05-25 08:22:00 51°21.129 2°51.206 12.4 351 12 101220 41
2010-05-25 08:22:04 51°21.143 2°51.204 13.7 350 12 101220 41
2010-05-25 08:22:09 51°21.159 2°51.202 13.8 351 12 101230 41
2010-05-25 08:22:15 51°21.179 2°51.199 12.2 350 12 101230 41
2010-05-25 08:22:20 51°21.195 2°51.197 12.4 351 12.1 101220 40
2010-05-25 08:22:25 51°21.212 2°51.195 12.4 351 12.1 101220 40
2010-05-25 08:22:30 51°21.228 2°51.192 13 351 12 101220 41
2010-05-25 08:22:35 51°21.245 2°51.19 11.7 352 12 101220 41
2010-05-25 08:22:40 51°21.261 2°51.187 12.5 349 12 101220 40
2010-05-25 08:22:45 51°21.278 2°51.185 13 350 12 101220 40
2010-05-25 08:22:50 51°21.294 2°51.182 12.9 350 12 101220 40
2010-05-25 08:22:55 51°21.311 2°51.179 13.2 352 12 101220 40
2010-05-25 08:23:00 51°21.327 2°51.177 13 353 12 101230 40
2010-05-25 08:23:05 51°21.344 2°51.174 13.7 352 12 101230 40
2010-05-25 08:23:10 51°21.36 2°51.171 11.2 350 12 101220 41
2010-05-25 08:23:15 51°21.377 2°51.169 12.6 351 12 101220 41
2010-05-25 08:23:20 51°21.393 2°51.167 13.4 352 12 101220 40
2010-05-25 08:23:24 51°21.406 2°51.165 11.8 352 12 101220 40
2010-05-25 08:23:30 51°21.426 2°51.162 10.8 351 12 101210 40
2010-05-25 08:23:35 51°21.443 2°51.159 12.3 351 12 101210 40
2010-05-25 08:23:40 51°21.459 2°51.157 13.1 352 12 101220 39
2010-05-25 08:23:44 51°21.473 2°51.154 13.8 350 12 101220 39
2010-05-25 08:23:50 51°21.492 2°51.152 13.8 353 12 101230 40
2010-05-25 08:23:55 51°21.509 2°51.149 13.2 353 12 101230 40
2010-05-25 08:24:00 51°21.525 2°51.147 13.3 352 12 101220 41
2010-05-25 08:24:04 51°21.539 2°51.145 11.5 350 12 101220 41
2010-05-25 08:24:10 51°21.558 2°51.143 12.1 349 12 101220 41
2010-05-25 08:24:15 51°21.575 2°51.14 13 352 12 101220 41
2010-05-25 08:24:20 51°21.591 2°51.138 12.1 351 11.9 101230 40
2010-05-25 08:24:24 51°21.605 2°51.136 13.8 350 11.9 101230 40
2010-05-25 08:24:30 51°21.624 2°51.134 11.7 350 12 101220 41
2010-05-25 08:24:35 51°21.641 2°51.132 12.7 352 12 101220 41
2010-05-25 08:24:40 51°21.657 2°51.131 12.6 353 12 101210 41
2010-05-25 08:24:44 51°21.671 2°51.129 13.8 352 12 101210 41
2010-05-25 08:24:50 51°21.69 2°51.127 11.9 351 11.9 101210 40
2010-05-25 08:24:55 51°21.707 2°51.125 13.4 352 11.9 101210 40
2010-05-25 08:25:00 51°21.723 2°51.123 11.7 351 11.9 101230 40
2010-05-25 08:25:04 51°21.737 2°51.122 13.3 353 11.9 101230 40
2010-05-25 08:25:10 51°21.756 2°51.12 12.7 352 11.9 101230 41
2010-05-25 08:25:15 51°21.773 2°51.118 12 349 11.9 101230 41
2010-05-25 08:25:20 51°21.79 2°51.115 13.2 352 11.9 101230 40
2010-05-25 08:25:25 51°21.806 2°51.113 12.9 352 11.9 101230 40
2010-05-25 08:25:30 51°21.823 2°51.11 13.6 351 11.9 101240 40
2010-05-25 08:25:35 51°21.839 2°51.108 12.2 351 11.9 101240 40
2010-05-25 08:25:40 51°21.856 2°51.105 13.4 351 11.9 101230 40
2010-05-25 08:25:44 51°21.869 2°51.103 12.5 352 11.9 101230 40
2010-05-25 08:25:50 51°21.889 2°51.1 14.3 353 11.9 101230 40
2010-05-25 08:25:55 51°21.905 2°51.097 12.6 353 11.9 101230 40
2010-05-25 08:26:00 51°21.922 2°51.094 13 352 11.9 101230 41
2010-05-25 08:26:04 51°21.935 2°51.092 12.1 352 11.9 101230 41
2010-05-25 08:26:10 51°21.955 2°51.089 11.3 351 11.9 101220 40
2010-05-25 08:26:15 51°21.971 2°51.086 13.3 350 11.9 101220 40
2010-05-25 08:26:20 51°21.988 2°51.084 12.1 351 11.9 101230 39
2010-05-25 08:26:24 51°22.001 2°51.083 12.3 351 11.9 101230 39
2010-05-25 08:26:30 51°22.021 2°51.079 13.1 351 11.9 101220 40
2010-05-25 08:26:35 51°22.038 2°51.077 11.5 350 11.9 101220 40
2010-05-25 08:26:40 51°22.054 2°51.075 12.6 352 11.9 101230 41
2010-05-25 08:26:44 51°22.067 2°51.072 11.8 351 11.9 101230 41
2010-05-25 08:26:50 51°22.087 2°51.069 12.3 353 11.9 101230 41
2010-05-25 08:26:55 51°22.104 2°51.067 12.8 351 11.9 101230 41
2010-05-25 08:27:00 51°22.12 2°51.064 12.4 353 11.9 101220 41
2010-05-25 08:27:04 51°22.133 2°51.062 12.7 352 11.9 101220 41
2010-05-25 08:27:10 51°22.153 2°51.059 12 351 11.9 101230 41
2010-05-25 08:27:15 51°22.17 2°51.056 13.5 352 11.9 101230 41
2010-05-25 08:27:20 51°22.186 2°51.053 11.1 353 11.9 101230 40
2010-05-25 08:27:24 51°22.2 2°51.051 12.4 351 11.9 101230 40
2010-05-25 08:27:30 51°22.22 2°51.048 11.8 351 11.9 101230 40
2010-05-25 08:27:35 51°22.236 2°51.046 12.9 350 11.9 101230 40
2010-05-25 08:27:40 51°22.253 2°51.043 11.5 351 11.9 101230 41
2010-05-25 08:27:45 51°22.27 2°51.041 12.8 351 11.9 101230 41
2010-05-25 08:27:50 51°22.286 2°51.038 13 350 11.9 101230 41
2010-05-25 08:27:55 51°22.303 2°51.036 14.3 352 11.9 101230 41
2010-05-25 08:28:00 51°22.32 2°51.033 12.4 351 11.9 101230 41
2010-05-25 08:28:04 51°22.333 2°51.031 12.3 351 11.9 101230 41
2010-05-25 08:28:10 51°22.353 2°51.028 10.6 352 11.9 101230 40
2010-05-25 08:28:15 51°22.369 2°51.025 12.4 351 11.9 101230 40
2010-05-25 08:28:20 51°22.386 2°51.023 12.9 353 11.9 101230 41
2010-05-25 08:28:24 51°22.399 2°51.02 12 353 11.9 101230 41
2010-05-25 08:28:30 51°22.419 2°51.018 10.4 352 11.9 101230 40
2010-05-25 08:28:35 51°22.436 2°51.015 12.9 351 11.9 101230 40
2010-05-25 08:28:40 51°22.453 2°51.013 11.3 350 11.9 101230 40
2010-05-25 08:28:44 51°22.466 2°51.011 13.6 351 11.9 101230 40
2010-05-25 08:28:49 51°22.483 2°51.008 12.1 352 11.9 101230 40
2010-05-25 08:28:55 51°22.503 2°51.005 12.3 353 11.9 101230 40
2010-05-25 08:29:00 51°22.52 2°51.002 12.5 353 11.9 101230 39
2010-05-25 08:29:04 51°22.533 2°51 12 350 11.9 101230 39
2010-05-25 08:29:09 51°22.55 2°50.998 12.9 351 11.9 101230 39
2010-05-25 08:29:15 51°22.57 2°50.995 11.5 351 11.9 101230 39
2010-05-25 08:29:20 51°22.587 2°50.992 10.2 353 11.9 101230 41
2010-05-25 08:29:25 51°22.604 2°50.99 12 349 11.9 101230 41
2010-05-25 08:29:30 51°22.62 2°50.988 11.8 353 11.8 101230 41
2010-05-25 08:29:35 51°22.637 2°50.986 11.6 348 11.8 101230 41
2010-05-25 08:29:40 51°22.654 2°50.983 13.2 350 11.9 101220 41
2010-05-25 08:29:45 51°22.671 2°50.982 13 352 11.9 101220 41
2010-05-25 08:29:50 51°22.688 2°50.981 12.9 353 11.8 101240 41
2010-05-25 08:29:55 51°22.705 2°50.979 12.7 352 11.8 101240 41
2010-05-25 08:30:00 51°22.722 2°50.978 13.3 352 11.8 101240 40
2010-05-25 08:30:05 51°22.739 2°50.977 12.8 355 11.8 101240 40
2010-05-25 08:30:10 51°22.755 2°50.975 10.3 353 11.8 101230 40
2010-05-25 08:30:15 51°22.772 2°50.974 12.1 353 11.8 101230 40
2010-05-25 08:30:20 51°22.789 2°50.972 13 352 11.8 101230 40
2010-05-25 08:30:24 51°22.803 2°50.971 12.3 352 11.8 101230 40
2010-05-25 08:30:30 51°22.823 2°50.968 11.9 353 11.8 101230 41
2010-05-25 08:30:35 51°22.84 2°50.966 11.3 353 11.8 101230 41
2010-05-25 08:30:40 51°22.857 2°50.964 12.1 352 11.8 101230 39
2010-05-25 08:30:44 51°22.87 2°50.962 10.9 355 11.8 101230 39
2010-05-25 08:30:50 51°22.891 2°50.959 10.9 351 11.8 101230 41
2010-05-25 08:30:55 51°22.907 2°50.957 12.4 352 11.8 101230 41
2010-05-25 08:31:00 51°22.924 2°50.955 12.8 353 11.8 101240 40
2010-05-25 08:31:04 51°22.938 2°50.953 13 353 11.8 101240 40
2010-05-25 08:31:10 51°22.957 2°50.95 12.2 353 11.8 101230 41
2010-05-25 08:31:15 51°22.974 2°50.949 12.4 354 11.8 101230 41
2010-05-25 08:31:20 51°22.991 2°50.947 11.7 352 11.8 101240 39
2010-05-25 08:31:24 51°23.004 2°50.946 13 352 11.8 101240 39
2010-05-25 08:31:30 51°23.023 2°50.944 11 353 11.8 101230 40
2010-05-25 08:31:35 51°23.04 2°50.942 10 353 11.8 101230 40
2010-05-25 08:31:40 51°23.057 2°50.94 11.5 352 11.8 101230 39
2010-05-25 08:31:44 51°23.07 2°50.939 10.7 352 11.8 101230 39
2010-05-25 08:31:50 51°23.09 2°50.937 11.2 352 11.8 101230 40
2010-05-25 08:31:55 51°23.106 2°50.935 11 352 11.8 101230 40
2010-05-25 08:32:00 51°23.122 2°50.933 12.8 352 11.8 101230 40
2010-05-25 08:32:05 51°23.139 2°50.932 11.1 351 11.8 101230 40
2010-05-25 08:32:10 51°23.155 2°50.93 11.4 352 11.8 101240 40
2010-05-25 08:32:15 51°23.171 2°50.928 11.8 353 11.8 101240 40
2010-05-25 08:32:20 51°23.188 2°50.926 12 352 11.8 101230 41
2010-05-25 08:32:25 51°23.204 2°50.924 12.5 353 11.8 101230 41
2010-05-25 08:32:30 51°23.22 2°50.922 12.2 354 11.8 101230 41
2010-05-25 08:32:35 51°23.237 2°50.92 13.4 353 11.8 101230 41
2010-05-25 08:32:40 51°23.253 2°50.918 12.6 355 11.8 101230 40
2010-05-25 08:32:44 51°23.266 2°50.917 11.5 352 11.8 101230 40
2010-05-25 08:32:50 51°23.285 2°50.914 10.9 352 11.7 101240 40
2010-05-25 08:32:55 51°23.302 2°50.913 11.5 351 11.7 101240 40
2010-05-25 08:33:00 51°23.318 2°50.911 11.3 352 11.7 101230 41
2010-05-25 08:33:04 51°23.331 2°50.909 12.2 352 11.7 101230 41
2010-05-25 08:33:10 51°23.35 2°50.907 11.5 353 11.7 101230 41
2010-05-25 08:33:15 51°23.367 2°50.904 11.5 352 11.7 101230 41
2010-05-25 08:33:20 51°23.383 2°50.903 11.8 353 11.7 101230 41
2010-05-25 08:33:24 51°23.396 2°50.901 12.9 353 11.7 101230 41
2010-05-25 08:33:30 51°23.415 2°50.898 12.5 352 11.7 101220 41
2010-05-25 08:33:35 51°23.432 2°50.896 13 351 11.7 101220 41
2010-05-25 08:33:40 51°23.448 2°50.894 12 353 11.7 101230 41
2010-05-25 08:33:44 51°23.461 2°50.892 10.5 353 11.7 101230 41
2010-05-25 08:33:50 51°23.48 2°50.89 11.6 354 11.7 101230 41
2010-05-25 08:33:55 51°23.497 2°50.888 11.8 354 11.7 101230 41
2010-05-25 08:34:00 51°23.513 2°50.886 10.4 353 11.7 101230 40
2010-05-25 08:34:05 51°23.529 2°50.883 10.8 352 11.7 101230 40
2010-05-25 08:34:10 51°23.546 2°50.882 11.4 352 11.7 101230 39
2010-05-25 08:34:15 51°23.562 2°50.879 12.2 352 11.7 101230 39
2010-05-25 08:34:20 51°23.578 2°50.877 12.5 352 11.7 101240 39
2010-05-25 08:34:25 51°23.595 2°50.875 13.2 354 11.7 101240 39
2010-05-25 08:34:30 51°23.611 2°50.873 12.4 353 11.7 101230 39
2010-05-25 08:34:35 51°23.627 2°50.871 13.1 353 11.7 101230 39
2010-05-25 08:34:40 51°23.644 2°50.869 11.3 352 11.7 101240 40
2010-05-25 08:34:45 51°23.66 2°50.867 11 352 11.7 101240 40
2010-05-25 08:34:50 51°23.676 2°50.865 11.6 352 11.7 101230 39
2010-05-25 08:34:55 51°23.693 2°50.863 11.1 353 11.7 101230 39
2010-05-25 08:35:00 51°23.709 2°50.861 10.7 350 11.7 101230 41
2010-05-25 08:35:04 51°23.722 2°50.858 11.9 351 11.7 101230 41
2010-05-25 08:35:10 51°23.742 2°50.856 11 351 11.7 101240 40
2010-05-25 08:35:15 51°23.758 2°50.854 11.6 352 11.7 101240 40
2010-05-25 08:35:20 51°23.774 2°50.852 11.7 352 11.7 101240 40
2010-05-25 08:35:24 51°23.787 2°50.85 11.1 353 11.7 101240 40
2010-05-25 08:35:30 51°23.807 2°50.847 12.2 353 11.7 101240 40
2010-05-25 08:35:35 51°23.823 2°50.845 11.4 351 11.7 101240 40
2010-05-25 08:35:40 51°23.84 2°50.843 11.6 350 11.7 101240 41
2010-05-25 08:35:44 51°23.853 2°50.841 10.8 353 11.7 101240 41
2010-05-25 08:35:49 51°23.869 2°50.838 11.2 353 11.7 101240 41
2010-05-25 08:35:55 51°23.889 2°50.836 13.5 351 11.7 101240 41
2010-05-25 08:36:00 51°23.906 2°50.834 11.8 351 11.7 101240 40
2010-05-25 08:36:05 51°23.922 2°50.832 11.2 351 11.7 101240 40
2010-05-25 08:36:10 51°23.939 2°50.83 11.5 352 11.7 101240 41
2010-05-25 08:36:15 51°23.955 2°50.828 10.7 348 11.7 101240 41
2010-05-25 08:36:20 51°23.972 2°50.825 12.1 351 11.7 101240 41
2010-05-25 08:36:25 51°23.988 2°50.823 11 353 11.7 101240 41
2010-05-25 08:36:30 51°24.005 2°50.821 12.3 351 11.7 101240 39
2010-05-25 08:36:35 51°24.021 2°50.818 10.6 351 11.7 101240 39
2010-05-25 08:36:40 51°24.038 2°50.816 12.1 349 11.7 101240 40
2010-05-25 08:36:45 51°24.054 2°50.814 10.2 352 11.7 101240 40
2010-05-25 08:36:50 51°24.071 2°50.811 11.7 351 11.7 101230 39
2010-05-25 08:36:55 51°24.087 2°50.809 12.3 351 11.7 101230 39
2010-05-25 08:37:00 51°24.103 2°50.806 12.3 351 11.7 101240 40
2010-05-25 08:37:04 51°24.117 2°50.804 12.9 354 11.7 101240 40
2010-05-25 08:37:10 51°24.137 2°50.802 12.3 350 11.7 101240 39
2010-05-25 08:37:15 51°24.153 2°50.799 13.1 352 11.7 101240 39
2010-05-25 08:37:20 51°24.17 2°50.797 11.6 353 11.7 101230 40
2010-05-25 08:37:24 51°24.183 2°50.795 12.3 352 11.7 101230 40
2010-05-25 08:37:30 51°24.203 2°50.793 11.5 352 11.7 101240 41
2010-05-25 08:37:35 51°24.219 2°50.791 11.5 349 11.7 101240 41
2010-05-25 08:37:40 51°24.236 2°50.789 11.9 352 11.7 101240 39
2010-05-25 08:37:44 51°24.249 2°50.786 11.1 350 11.7 101240 39
2010-05-25 08:37:50 51°24.269 2°50.783 12.5 353 11.7 101240 41
2010-05-25 08:37:55 51°24.285 2°50.781 12.2 353 11.7 101240 41
2010-05-25 08:38:00 51°24.302 2°50.779 11.6 350 11.7 101240 41
2010-05-25 08:38:04 51°24.315 2°50.777 11.2 352 11.7 101240 41
2010-05-25 08:38:10 51°24.335 2°50.775 11.2 349 11.7 101240 40
2010-05-25 08:38:15 51°24.351 2°50.773 11.9 352 11.7 101240 40
2010-05-25 08:38:20 51°24.368 2°50.771 11.8 351 11.7 101240 40
2010-05-25 08:38:24 51°24.381 2°50.769 12.7 353 11.7 101240 40
2010-05-25 08:38:30 51°24.401 2°50.767 11.2 351 11.7 101240 41
2010-05-25 08:38:35 51°24.418 2°50.765 12.7 353 11.7 101240 41
2010-05-25 08:38:40 51°24.434 2°50.763 12.7 352 11.7 101240 40
2010-05-25 08:38:45 51°24.451 2°50.76 11.9 353 11.7 101240 40
2010-05-25 08:38:50 51°24.467 2°50.758 13.7 354 11.7 101250 41
2010-05-25 08:38:55 51°24.484 2°50.755 11.1 351 11.7 101250 41
2010-05-25 08:39:00 51°24.5 2°50.753 10.5 349 11.7 101240 40
2010-05-25 08:39:05 51°24.517 2°50.751 13 351 11.7 101240 40
2010-05-25 08:39:10 51°24.533 2°50.748 13.2 352 11.6 101240 41
2010-05-25 08:39:15 51°24.55 2°50.747 13 351 11.6 101240 41
2010-05-25 08:39:20 51°24.567 2°50.745 14.2 352 11.7 101240 39
2010-05-25 08:39:24 51°24.58 2°50.742 12.5 354 11.7 101240 39
2010-05-25 08:39:30 51°24.6 2°50.74 12.7 354 11.7 101240 41
2010-05-25 08:39:35 51°24.616 2°50.737 11.6 353 11.7 101240 41
2010-05-25 08:39:40 51°24.633 2°50.735 12.5 350 11.6 101240 39
2010-05-25 08:39:44 51°24.646 2°50.732 11.7 353 11.6 101240 39
2010-05-25 08:39:50 51°24.666 2°50.729 11.8 350 11.6 101240 40
2010-05-25 08:39:55 51°24.683 2°50.727 12.2 351 11.6 101240 40
2010-05-25 08:40:00 51°24.7 2°50.725 13 353 11.6 101230 41
2010-05-25 08:40:04 51°24.713 2°50.724 11.6 354 11.6 101230 41
2010-05-25 08:40:10 51°24.733 2°50.721 10.7 352 11.6 101240 40
2010-05-25 08:40:15 51°24.75 2°50.718 12.4 351 11.6 101240 40
2010-05-25 08:40:20 51°24.766 2°50.716 13.1 351 11.7 101240 40
2010-05-25 08:40:24 51°24.78 2°50.714 13.1 354 11.7 101240 40
2010-05-25 08:40:30 51°24.8 2°50.711 12.9 354 11.7 101240 41
2010-05-25 08:40:35 51°24.816 2°50.709 12.3 354 11.7 101240 41
2010-05-25 08:40:40 51°24.833 2°50.706 11.6 349 11.7 101240 39
2010-05-25 08:40:44 51°24.846 2°50.704 11.3 353 11.7 101240 39
2010-05-25 08:40:50 51°24.866 2°50.701 10.3 350 11.6 101240 41
2010-05-25 08:40:55 51°24.883 2°50.699 11.6 350 11.6 101240 41
2010-05-25 08:41:00 51°24.899 2°50.697 14.2 352 11.6 101240 39
2010-05-25 08:41:05 51°24.916 2°50.695 13.2 352 11.6 101240 39
2010-05-25 08:41:10 51°24.933 2°50.693 12.4 350 11.7 101240 41
2010-05-25 08:41:15 51°24.949 2°50.691 12.1 352 11.7 101240 41
2010-05-25 08:41:20 51°24.966 2°50.689 11.6 352 11.7 101250 41
2010-05-25 08:41:24 51°24.98 2°50.688 13.4 352 11.7 101250 41
2010-05-25 08:41:30 51°25 2°50.687 12.7 352 11.7 101240 40
2010-05-25 08:41:35 51°25.017 2°50.686 11.9 352 11.7 101240 40
2010-05-25 08:41:40 51°25.034 2°50.684 12.2 351 11.7 101240 40
2010-05-25 08:41:44 51°25.047 2°50.683 12.4 352 11.7 101240 40
2010-05-25 08:41:50 51°25.067 2°50.681 11.5 353 11.6 101230 39
2010-05-25 08:41:55 51°25.084 2°50.679 12.8 352 11.6 101230 39
2010-05-25 08:42:00 51°25.101 2°50.677 12 351 11.7 101240 39
2010-05-25 08:42:04 51°25.114 2°50.676 12.9 353 11.7 101240 39
2010-05-25 08:42:10 51°25.135 2°50.673 12.3 352 11.7 101250 39
2010-05-25 08:42:15 51°25.151 2°50.671 11.2 351 11.7 101250 39
2010-05-25 08:42:20 51°25.168 2°50.669 10.8 351 11.7 101260 38
2010-05-25 08:42:24 51°25.182 2°50.668 12.4 351 11.7 101260 38
2010-05-25 08:42:29 51°25.199 2°50.667 13.3 351 11.6 101230 41
2010-05-25 08:42:35 51°25.219 2°50.665 13.4 352 11.6 101230 41
2010-05-25 08:42:40 51°25.236 2°50.663 11.9 352 11.7 101230 41
2010-05-25 08:42:45 51°25.252 2°50.661 13.2 351 11.7 101230 41
2010-05-25 08:42:50 51°25.269 2°50.66 12.9 352 11.7 101240 40
2010-05-25 08:42:55 51°25.286 2°50.658 11.3 279 11.7 101240 40
2010-05-25 08:43:00 51°25.303 2°50.656 12.1 352 11.7 101240 39
2010-05-25 08:43:05 51°25.32 2°50.655 12.4 349 11.7 101240 39
2010-05-25 08:43:10 51°25.336 2°50.653 12.8 352 11.6 101230 39
2010-05-25 08:43:15 51°25.353 2°50.652 11.5 352 11.6 101230 39
2010-05-25 08:43:20 51°25.37 2°50.651 10.5 350 11.7 101250 39
2010-05-25 08:43:25 51°25.387 2°50.649 13.3 351 11.7 101250 39
2010-05-25 08:43:30 51°25.404 2°50.647 12.9 351 11.6 101240 41
2010-05-25 08:43:35 51°25.421 2°50.645 13.1 352 11.6 101240 41
2010-05-25 08:43:40 51°25.438 2°50.644 10.1 350 11.6 101240 41
2010-05-25 08:43:45 51°25.454 2°50.642 12.1 352 11.6 101240 41
2010-05-25 08:43:50 51°25.471 2°50.641 14.5 352 11.7 101240 40
2010-05-25 08:43:55 51°25.488 2°50.639 12.5 352 11.7 101240 40
2010-05-25 08:44:00 51°25.505 2°50.638 12.3 353 11.6 101240 41
2010-05-25 08:44:04 51°25.518 2°50.637 11.2 352 11.6 101240 41
2010-05-25 08:44:10 51°25.539 2°50.635 10.4 349 11.6 101240 40
2010-05-25 08:44:15 51°25.555 2°50.634 12 351 11.6 101240 40
2010-05-25 08:44:20 51°25.572 2°50.633 11.6 351 11.6 101240 40
2010-05-25 08:44:24 51°25.585 2°50.631 12 350 11.6 101240 40
2010-05-25 08:44:30 51°25.606 2°50.63 11.6 351 11.6 101230 40
2010-05-25 08:44:35 51°25.623 2°50.628 11.3 351 11.6 101230 40
2010-05-25 08:44:40 51°25.64 2°50.627 12 351 11.6 101240 40
2010-05-25 08:44:44 51°25.653 2°50.625 10.5 351 11.6 101240 40
2010-05-25 08:44:50 51°25.673 2°50.623 11.9 351 11.6 101230 39
2010-05-25 08:44:55 51°25.69 2°50.622 12.5 351 11.6 101230 39
2010-05-25 08:45:00 51°25.707 2°50.621 12.3 353 11.6 101240 39
2010-05-25 08:45:04 51°25.721 2°50.62 11.9 352 11.6 101240 39
2010-05-25 08:45:10 51°25.741 2°50.618 11.3 350 11.6 101250 40
2010-05-25 08:45:15 51°25.758 2°50.616 12.4 354 11.6 101250 40
2010-05-25 08:45:20 51°25.775 2°50.615 12.8 353 11.6 101230 41
2010-05-25 08:45:25 51°25.792 2°50.614 13.7 352 11.6 101230 41
2010-05-25 08:45:30 51°25.809 2°50.612 13.5 352 11.6 101230 41
2010-05-25 08:45:35 51°25.826 2°50.611 13.5 353 11.6 101230 41
2010-05-25 08:45:40 51°25.843 2°50.61 11.8 354 11.6 101250 40
2010-05-25 08:45:45 51°25.86 2°50.609 10.1 350 11.6 101250 40
2010-05-25 08:45:50 51°25.877 2°50.607 11.4 353 11.6 101230 39
2010-05-25 08:45:55 51°25.894 2°50.607 12 353 11.6 101230 39
2010-05-25 08:46:00 51°25.911 2°50.605 12.2 350 11.6 101240 39
2010-05-25 08:46:05 51°25.928 2°50.604 12.2 351 11.6 101240 39
2010-05-25 08:46:10 51°25.944 2°50.603 10.2 351 11.6 101240 41
2010-05-25 08:46:15 51°25.962 2°50.601 12.7 354 11.6 101240 41
2010-05-25 08:46:20 51°25.979 2°50.601 12.3 353 11.6 101240 41
2010-05-25 08:46:24 51°25.992 2°50.599 13.2 351 11.6 101240 41
2010-05-25 08:46:30 51°26.013 2°50.598 12.8 352 11.6 101240 39
2010-05-25 08:46:35 51°26.03 2°50.597 13.4 350 11.6 101240 39
2010-05-25 08:46:40 51°26.047 2°50.595 12.6 353 11.6 101240 39
2010-05-25 08:46:44 51°26.061 2°50.594 13 354 11.6 101240 39
2010-05-25 08:46:50 51°26.081 2°50.592 13.8 353 11.6 101230 40
2010-05-25 08:46:55 51°26.098 2°50.59 11.8 354 11.6 101230 40
2010-05-25 08:47:00 51°26.115 2°50.588 11.1 350 11.6 101240 40
2010-05-25 08:47:04 51°26.129 2°50.586 11.6 352 11.6 101240 40
2010-05-25 08:47:10 51°26.15 2°50.585 12.6 353 11.6 101230 40
2010-05-25 08:47:15 51°26.167 2°50.582 12.7 351 11.6 101230 40
2010-05-25 08:47:20 51°26.184 2°50.58 11.6 350 11.6 101230 39
2010-05-25 08:47:24 51°26.197 2°50.579 10.8 351 11.6 101230 39
2010-05-25 08:47:30 51°26.218 2°50.576 11.1 350 11.6 101240 39
2010-05-25 08:47:35 51°26.234 2°50.574 12.7 350 11.6 101240 39
2010-05-25 08:47:40 51°26.251 2°50.571 11.2 352 11.6 101240 39
2010-05-25 08:47:45 51°26.268 2°50.569 11.9 352 11.6 101240 39
2010-05-25 08:47:50 51°26.285 2°50.567 12.8 354 11.6 101240 40
2010-05-25 08:47:55 51°26.301 2°50.564 12.1 353 11.6 101240 40
2010-05-25 08:48:00 51°26.318 2°50.562 12.4 352 11.6 101240 41
2010-05-25 08:48:05 51°26.335 2°50.56 12.7 352 11.6 101240 41
2010-05-25 08:48:10 51°26.351 2°50.558 11.8 351 11.6 101240 39
2010-05-25 08:48:15 51°26.368 2°50.556 12.5 353 11.6 101240 39
2010-05-25 08:48:20 51°26.385 2°50.554 11.8 350 11.6 101240 41
2010-05-25 08:48:24 51°26.398 2°50.552 12.6 351 11.6 101240 41
2010-05-25 08:48:30 51°26.418 2°50.55 11.4 347 11.6 101240 39
2010-05-25 08:48:35 51°26.435 2°50.548 12.8 352 11.6 101240 39
2010-05-25 08:48:40 51°26.451 2°50.546 11.9 351 11.6 101240 40
2010-05-25 08:48:44 51°26.465 2°50.544 12.1 350 11.6 101240 40
2010-05-25 08:48:50 51°26.485 2°50.541 12.3 351 11.6 101240 39
2010-05-25 08:48:55 51°26.502 2°50.539 11.7 352 11.6 101240 39
2010-05-25 08:49:00 51°26.518 2°50.537 13.6 353 11.6 101230 41
2010-05-25 08:49:04 51°26.532 2°50.535 11.6 353 11.6 101230 41
2010-05-25 08:49:09 51°26.548 2°50.533 12.2 351 11.6 101240 40
2010-05-25 08:49:15 51°26.568 2°50.531 11.1 351 11.6 101240 40
2010-05-25 08:49:20 51°26.585 2°50.529 13.8 352 11.6 101250 39
2010-05-25 08:49:25 51°26.602 2°50.527 12.4 352 11.6 101250 39
2010-05-25 08:49:30 51°26.619 2°50.525 12.1 351 11.6 101230 40
2010-05-25 08:49:35 51°26.636 2°50.523 11.4 351 11.6 101230 40
2010-05-25 08:49:40 51°26.652 2°50.521 12.2 350 11.6 101230 41
2010-05-25 08:49:45 51°26.669 2°50.518 12.2 352 11.6 101230 41
2010-05-25 08:49:50 51°26.686 2°50.516 12 351 11.6 101240 41
2010-05-25 08:49:55 51°26.702 2°50.514 11.8 351 11.6 101240 41
2010-05-25 08:50:00 51°26.719 2°50.511 11.2 350 11.6 101250 40
2010-05-25 08:50:05 51°26.736 2°50.509 12.5 351 11.6 101250 40
2010-05-25 08:50:09 51°26.749 2°50.507 12.7 349 11.6 101240 39
2010-05-25 08:50:15 51°26.769 2°50.504 11.6 350 11.6 101240 39
2010-05-25 08:50:20 51°26.786 2°50.502 13.3 351 11.6 101230 39
2010-05-25 08:50:24 51°26.799 2°50.5 12.8 351 11.6 101230 39
2010-05-25 08:50:30 51°26.819 2°50.497 12.9 351 11.6 101250 41
2010-05-25 08:50:35 51°26.836 2°50.495 12.5 352 11.6 101250 41
2010-05-25 08:50:40 51°26.853 2°50.492 10.7 351 11.6 101230 40
2010-05-25 08:50:44 51°26.866 2°50.49 10.6 351 11.6 101230 40
2010-05-25 08:50:50 51°26.886 2°50.488 11.5 350 11.5 101240 40
2010-05-25 08:50:55 51°26.902 2°50.486 11.6 349 11.5 101240 40
2010-05-25 08:51:00 51°26.919 2°50.484 13.3 350 11.6 101240 40
2010-05-25 08:51:05 51°26.936 2°50.481 12.2 351 11.6 101240 40
2010-05-25 08:51:09 51°26.949 2°50.48 11.2 352 11.6 101240 41
2010-05-25 08:51:15 51°26.969 2°50.478 11.9 350 11.6 101240 41
2010-05-25 08:51:20 51°26.986 2°50.475 13 351 11.6 101240 39
2010-05-25 08:51:24 51°26.999 2°50.474 12.3 351 11.6 101240 39
2010-05-25 08:51:30 51°27.019 2°50.472 12.1 350 11.6 101240 41
2010-05-25 08:51:35 51°27.036 2°50.471 11.8 351 11.6 101240 41
2010-05-25 08:51:40 51°27.053 2°50.469 11.7 349 11.6 101250 40
2010-05-25 08:51:45 51°27.069 2°50.466 13 350 11.6 101250 40
2010-05-25 08:51:50 51°27.086 2°50.464 12.3 350 11.6 101240 40
2010-05-25 08:51:55 51°27.102 2°50.462 13 352 11.6 101240 40
2010-05-25 08:52:00 51°27.119 2°50.459 12.6 352 11.6 101240 39
2010-05-25 08:52:05 51°27.135 2°50.456 11.4 350 11.6 101240 39
2010-05-25 08:52:09 51°27.149 2°50.454 10.6 349 11.6 101250 40
2010-05-25 08:52:15 51°27.169 2°50.452 11.5 351 11.6 101250 40
2010-05-25 08:52:20 51°27.186 2°50.45 11.3 350 11.5 101240 40
2010-05-25 08:52:25 51°27.202 2°50.448 11.5 350 11.5 101240 40
2010-05-25 08:52:30 51°27.219 2°50.445 13.7 351 11.6 101250 41
2010-05-25 08:52:35 51°27.236 2°50.443 13.1 352 11.6 101250 41
2010-05-25 08:52:40 51°27.252 2°50.441 10.5 351 11.5 101250 39
2010-05-25 08:52:44 51°27.266 2°50.439 12.2 352 11.5 101250 39
2010-05-25 08:52:50 51°27.286 2°50.436 12.3 351 11.5 101240 40
2010-05-25 08:52:55 51°27.303 2°50.435 12 278 11.5 101240 40
2010-05-25 08:53:00 51°27.319 2°50.432 11.6 352 11.5 101240 39
2010-05-25 08:53:05 51°27.336 2°50.43 13.1 352 11.5 101240 39
2010-05-25 08:53:09 51°27.349 2°50.428 11.7 352 11.5 101250 40
2010-05-25 08:53:15 51°27.37 2°50.426 12.3 351 11.5 101250 40
2010-05-25 08:53:20 51°27.387 2°50.423 12.8 352 11.5 101240 39
2010-05-25 08:53:24 51°27.4 2°50.421 11.8 352 11.5 101240 39
2010-05-25 08:53:30 51°27.42 2°50.418 10.7 350 11.5 101240 41
2010-05-25 08:53:35 51°27.437 2°50.416 12.4 352 11.5 101240 41
2010-05-25 08:53:40 51°27.454 2°50.414 12.9 353 11.5 101250 40
2010-05-25 08:53:44 51°27.467 2°50.412 11.9 351 11.5 101250 40
2010-05-25 08:53:50 51°27.488 2°50.41 11.7 350 11.5 101240 40
2010-05-25 08:53:55 51°27.505 2°50.407 12.8 351 11.5 101240 40
2010-05-25 08:54:00 51°27.522 2°50.405 12.3 352 11.5 101250 40
2010-05-25 08:54:04 51°27.535 2°50.403 12.6 354 11.5 101250 40
2010-05-25 08:54:10 51°27.555 2°50.4 11.4 352 11.5 101240 39
2010-05-25 08:54:15 51°27.572 2°50.397 11.7 349 11.5 101240 39
2010-05-25 08:54:20 51°27.589 2°50.395 11.8 351 11.5 101240 39
2010-05-25 08:54:25 51°27.606 2°50.391 12.4 351 11.5 101240 39
2010-05-25 08:54:30 51°27.623 2°50.39 13 351 11.5 101250 41
2010-05-25 08:54:35 51°27.64 2°50.387 11.8 351 11.5 101250 41
2010-05-25 08:54:40 51°27.657 2°50.385 10 351 11.5 101240 39
2010-05-25 08:54:45 51°27.674 2°50.382 12.5 351 11.5 101240 39
2010-05-25 08:54:50 51°27.691 2°50.38 12.2 352 11.5 101250 40
2010-05-25 08:54:55 51°27.708 2°50.378 12.3 278 11.5 101250 40
2010-05-25 08:55:00 51°27.725 2°50.375 10.6 352 11.5 101250 40
2010-05-25 08:55:04 51°27.738 2°50.373 11.2 349 11.5 101250 40
2010-05-25 08:55:10 51°27.759 2°50.37 11.5 351 11.5 101250 39
2010-05-25 08:55:15 51°27.776 2°50.368 13.1 351 11.5 101250 39
2010-05-25 08:55:20 51°27.793 2°50.365 12.5 352 11.5 101240 40
2010-05-25 08:55:24 51°27.806 2°50.364 11.9 353 11.5 101240 40
2010-05-25 08:55:29 51°27.823 2°50.361 11.4 350 11.5 101250 41
2010-05-25 08:55:35 51°27.844 2°50.359 11.2 350 11.5 101250 41
2010-05-25 08:55:40 51°27.861 2°50.356 11.3 352 11.5 101240 39
2010-05-25 08:55:45 51°27.878 2°50.354 11.7 351 11.5 101240 39
2010-05-25 08:55:49 51°27.892 2°50.352 11 350 11.5 101240 40
2010-05-25 08:55:55 51°27.912 2°50.35 11.6 351 11.5 101240 40
2010-05-25 08:56:00 51°27.93 2°50.347 11.9 350 11.5 101250 39
2010-05-25 08:56:05 51°27.947 2°50.345 11.1 351 11.5 101250 39
2010-05-25 08:56:10 51°27.964 2°50.341 11.5 350 11.5 101250 41
2010-05-25 08:56:15 51°27.981 2°50.339 12.1 350 11.5 101250 41
2010-05-25 08:56:20 51°27.998 2°50.337 11 349 11.5 101250 40
2010-05-25 08:56:25 51°28.016 2°50.337 11.9 350 11.5 101250 40
2010-05-25 08:56:30 51°28.033 2°50.335 12.5 350 11.5 101250 39
2010-05-25 08:56:35 51°28.05 2°50.335 11.8 348 11.5 101250 39
2010-05-25 08:56:40 51°28.067 2°50.334 12 350 11.5 101240 41
2010-05-25 08:56:45 51°28.085 2°50.334 11.9 351 11.5 101240 41
2010-05-25 08:56:49 51°28.099 2°50.334 12.1 345 11.5 101250 40
2010-05-25 08:56:55 51°28.119 2°50.334 11.1 350 11.5 101250 40
2010-05-25 08:57:00 51°28.137 2°50.333 12.5 350 11.5 101250 40
2010-05-25 08:57:05 51°28.154 2°50.333 12.4 351 11.5 101250 40
2010-05-25 08:57:10 51°28.171 2°50.332 12.7 350 11.5 101250 39
2010-05-25 08:57:15 51°28.189 2°50.332 10.5 347 11.5 101250 39
2010-05-25 08:57:20 51°28.206 2°50.331 11.3 352 11.5 101250 40
2010-05-25 08:57:24 51°28.22 2°50.331 13 351 11.5 101250 40
2010-05-25 08:57:30 51°28.24 2°50.33 10.8 348 11.5 101250 40
2010-05-25 08:57:35 51°28.258 2°50.329 12.7 350 11.5 101250 40
2010-05-25 08:57:40 51°28.275 2°50.329 10.5 350 11.5 101250 41
2010-05-25 08:57:45 51°28.292 2°50.328 11.4 349 11.5 101250 41
2010-05-25 08:57:49 51°28.306 2°50.328 11.3 349 11.5 101250 41
2010-05-25 08:57:55 51°28.327 2°50.327 11.5 350 11.5 101250 41
2010-05-25 08:58:00 51°28.344 2°50.327 11.9 352 11.5 101260 40
2010-05-25 08:58:04 51°28.358 2°50.327 10.8 349 11.5 101260 40
2010-05-25 08:58:09 51°28.376 2°50.326 10.7 349 11.5 101250 40
2010-05-25 08:58:15 51°28.396 2°50.326 11.8 351 11.5 101250 40
2010-05-25 08:58:20 51°28.414 2°50.326 13 351 11.5 101260 39
2010-05-25 08:58:24 51°28.428 2°50.326 13.3 350 11.5 101260 39
2010-05-25 08:58:29 51°28.445 2°50.326 12.5 350 11.5 101250 40
2010-05-25 08:58:35 51°28.466 2°50.327 12.4 352 11.5 101250 40
2010-05-25 08:58:40 51°28.483 2°50.328 12.3 350 11.5 101250 41
2010-05-25 08:58:45 51°28.5 2°50.329 11.8 351 11.5 101250 41
2010-05-25 08:58:50 51°28.517 2°50.33 12.9 351 11.5 101240 41